Regional Weather Roundup
Issued by NWS

Home | Current Version | Previous Version | Graphics & Text | Print | Product List | Glossary On
Versions: 1 2 3 4 5 6 7 8 9 10 11 12 13 14 15 16 17 18 19 20 21 22 23 24 25 26 27 28 29 30 31 32 33 34 35 36 37 38 39 40 41 42 43 44 45 46 47 48 49 50
000
ASUS45 KSLC 161210
RWRUT

UTAH REGIONAL WEATHER ROUNDUP
NATIONAL WEATHER SERVICE SALT LAKE CITY UT
600 AM MDT TUE SEP 16 2014

UTZ001>011-023>025-161300-

NORTHERN UTAH

CITY           SKY/WX    TMP DP  RH WIND       PRES   REMARKS
HILL AFB       CLEAR     60  38  43 E21       30.12R
LOGAN          CLEAR     47  43  86 N3        30.12S
OGDEN          CLEAR     62  38  40 S9        30.09S
PROVO AIRPORT  CLEAR     55  45  67 SE3       30.15R
SALT LAKE CITY CLEAR     64  44  48 SE10      30.08R
VERNAL         CLEAR     52  43  71 NW3       30.22R
WENDOVER       CLEAR     63  37  39 CALM      30.08S
HEBER CITY     CLEAR     45  39  81 CALM      30.24S
WEST JORDAN    CLEAR     64  41  42 S9        30.11R

$$

UTZ012>022-026-027-161300-

SOUTHERN UTAH

CITY           SKY/WX    TMP DP  RH WIND       PRES   REMARKS
BRYCE CANYON   CLEAR     42  38  85 W5        30.37S
CEDAR CITY     CLEAR     51  42  71 NW3       30.19S
MILFORD        CLEAR     52  41  66 S7        30.15R
MOAB/CYNLANDS  CLEAR     64  41  42 E5        30.14R
PRICE          CLEAR     58  35  42 NE3       30.23S
ST GEORGE      SUNNY     70  41  35 CALM      30.02S
KANAB            N/A     61  39  44 NW15      30.19S

$$

REGIONAL REPORTS     COLORADO/ARIZONA

CITY           SKY/WX    TMP DP  RH WIND       PRES   REMARKS
CRAIG, CO      CLEAR     41  36  82 CALM      30.30S
GRAND JUNCTION CLEAR     55  42  61 CALM      30.19S
RIFLE          CLEAR     49  40  71 SE5       30.28R
MONTROSE       PTCLDY    55  41  59 SE9       30.29R
CORTEZ         CLEAR     52  45  77 E5        30.30S
PAGE, AZ       CLEAR     72  47  40 S7        30.13S
GRAND CANYON   CLEAR     47  43  86 E3        30.29S
KINGMAN        CLEAR     75  50  41 SE13      30.02S
FLAGSTAFF      CLEAR     48  44  86 E5        30.32S

$$

REGIONAL REPORTS    NEVADA/IDAHO/WYOMING

CITY           SKY/WX    TMP DP  RH WIND       PRES   REMARKS
LAS VEGAS, NV  PTCLDY    81  49  32 S8        29.87R
ELY            CLEAR     49  37  63 S8        30.23S
ELKO           PTCLDY    47  31  53 CALM      30.11S
POCATELLO, ID  CLEAR     57  35  43 E3        30.11R
BURLEY         MOCLDY    54  42  64 E5        30.04F
EVANSTON, WY   PTCLDY    55  30  38 E6        30.30S
ROCK SPRINGS   PTCLDY    52  33  48 SE5       30.30S

$$


USA.gov is the U.S. government's official web portal to all federal, state and local government web resources and services.